Location: ?????????
(38.5999°N, 22.7695°E)
Time: 21:31:32
(UTC+00:00)

Cosmos 371 Rocket - Pass Details

Date: 12 August 2024
Orbit: 679 x 692 km, 74.0° (Epoch: 17 September)

Event Time Altitude Azimuth Distance (km) Brightness Sun altitude
Rises 21:32:08 0° 327° (NNW) 3,063 7.6 -34.9°
Reaches altitude 10° 21:34:48 10° 314° (NW) 2,140 6.4 -35.0°
Enters shadow 21:36:24 17° 299° (WNW) 1,690 5.7 -35.1°
